Terminal Aerodrome Forecast
Issued by NWS

Home | Current Version | Previous Version | Text Only | Print | Product List | Glossary On
Versions: 1 2 3 4 5 6 7 8 9 10 11 12 13 14 15 16
000
FTAK31 PANC 270535
TAFADL
TAF
PADL 270535Z 2706/2806 04007KT P6SM SKC WS010/04035KT
      TEMPO 2708/2712 04012G20KT
     FM271400 06012KT P6SM SKC
     FM280000 14010KT P6SM SCT050=

USA.gov is the U.S. government's official web portal to all federal, state and local government web resources and services.